Auburn, IN

6:00 PM EDT on April 21, 2018 (GMT -0400)
Auburn

Weather History for KGWB - March, 2014

Change the Weather History Date:

Friday, March 14, 2014

  Actual Average (KFWA) Record (KFWA)
Temperature  
Mean Temperature 40 °F -  
Max Temperature 51 °F 45 °F 79 °F (2012)
Min Temperature 30 °F 28 °F 6 °F (1950)
Degree Days  
Heating Degree Days 24    
Moisture  
Dew Point 29 °F    
Average Humidity 61    
Maximum Humidity 81    
Minimum Humidity 47    
Precipitation  
Precipitation 0.00 in - - ()
Sea Level Pressure  
Sea Level Pressure 29.77 in    
Wind  
Wind Speed 10 mph (SW)    
Max Wind Speed 18 mph    
Max Gust Speed 32 mph    
Visibility 10 miles    
Events      
Averages and records for this station are not official NWS values.
T = Trace of Precipitation, MM = Missing Value Source: NWS Daily Summary

Daily Weather History Graph

Daily Weather History Graph

Search for Another Location

Airport or City:

Astronomy

Mar. 14, 2014 Rise Set
Actual Time 7:53 AM EDT 7:45 PM EDT
Civil Twilight 7:26 AM EDT 8:13 PM EDT
Nautical Twilight 6:54 AM EDT 8:45 PM EDT
Astronomical Twilight 6:21 AM EDT 9:17 PM EDT
Moon 6:06 PM EDT (3/14) 6:34 AM EDT (3/14)
Length of Visible Light 12h 47m
Length of Day
11h 52m
Waxing Gibbous, 96% of the Moon is Illuminated
Mar 14
Waxing Gibbous
Mar 16
Full
Mar 23
Last Quarter
Mar 30
New
Apr 7
First Quarter

Hourly Weather History & Observations

Time (EDT) Temp. Windchill Dew Point Humidity Pressure Visibility Wind Dir Wind Speed Gust Speed Precip Events Conditions
12:15 AM 30.2 °F 24.3 °F 21.2 °F 69% 29.96 in 10.0 mi SSW 5.8 mph - N/A   Clear
12:35 AM 30.2 °F 22.6 °F 21.2 °F 69% 29.95 in 10.0 mi SSW 8.1 mph - N/A   Clear
12:55 AM 32.0 °F 24.8 °F 21.2 °F 64% 29.94 in 10.0 mi SSW 8.1 mph - N/A   Clear
1:15 AM 32.0 °F 25.6 °F 21.2 °F 64% 29.93 in 10.0 mi SSW 6.9 mph - N/A   Clear
1:35 AM 32.0 °F 24.8 °F 21.2 °F 64% 29.93 in 10.0 mi SSW 8.1 mph - N/A   Clear
1:55 AM 32.0 °F 25.6 °F 21.2 °F 64% 29.92 in 10.0 mi SSW 6.9 mph - N/A   Clear
2:15 AM 32.0 °F 24.8 °F 21.2 °F 64% 29.92 in 10.0 mi SSW 8.1 mph - N/A   Clear
2:35 AM 32.0 °F 24.2 °F 23.0 °F 69% 29.91 in 10.0 mi SSW 9.2 mph - N/A   Clear
2:55 AM 33.8 °F 25.8 °F 23.0 °F 65% 29.91 in 10.0 mi SSW 10.4 mph 17.3 mph N/A   Clear
3:15 AM 33.8 °F 27.0 °F 23.0 °F 65% 29.91 in 10.0 mi SSW 8.1 mph - N/A   Clear
3:35 AM 33.8 °F 27.7 °F 23.0 °F 65% 29.90 in 10.0 mi SSW 6.9 mph - N/A   Clear
3:55 AM 33.8 °F 25.8 °F 23.0 °F 65% 29.88 in 10.0 mi SSW 10.4 mph 16.1 mph N/A   Clear
4:15 AM 33.8 °F 27.0 °F 23.0 °F 65% 29.88 in 10.0 mi SSW 8.1 mph - N/A   Clear
4:35 AM 33.8 °F 28.6 °F 23.0 °F 65% 29.87 in 10.0 mi SSW 5.8 mph - N/A   Clear
4:55 AM 32.0 °F 25.6 °F 23.0 °F 69% 29.86 in 10.0 mi SSW 6.9 mph - N/A   Clear
5:15 AM 32.0 °F 26.4 °F 23.0 °F 69% 29.85 in 10.0 mi South 5.8 mph - N/A   Clear
5:35 AM 32.0 °F 25.6 °F 23.0 °F 69% 29.85 in 10.0 mi South 6.9 mph - N/A   Clear
5:55 AM 32.0 °F 25.6 °F 23.0 °F 69% 29.84 in 10.0 mi SSW 6.9 mph - N/A   Clear
6:15 AM 33.8 °F 27.7 °F 24.8 °F 70% 29.83 in 10.0 mi SSW 6.9 mph - N/A   Clear
6:35 AM 33.8 °F 26.4 °F 24.8 °F 70% 29.82 in 10.0 mi SSW 9.2 mph - N/A   Clear
6:55 AM 33.8 °F 26.4 °F 24.8 °F 70% 29.81 in 10.0 mi SSW 9.2 mph - N/A   Clear
7:15 AM 33.8 °F 26.4 °F 26.6 °F 75% 29.81 in 10.0 mi SSW 9.2 mph - N/A   Clear
7:35 AM 33.8 °F 26.4 °F 26.6 °F 75% 29.80 in 10.0 mi SSW 9.2 mph - N/A   Clear
7:55 AM 33.8 °F 25.8 °F 26.6 °F 75% 29.80 in 10.0 mi SSW 10.4 mph - N/A   Clear
8:15 AM 35.6 °F 28.0 °F 26.6 °F 70% 29.80 in 10.0 mi SSW 10.4 mph - N/A   Clear
8:35 AM 35.6 °F 28.0 °F 26.6 °F 70% 29.80 in 10.0 mi SSW 10.4 mph 17.3 mph N/A   Clear
8:55 AM 37.4 °F 30.8 °F 28.4 °F 70% 29.79 in 10.0 mi SSW 9.2 mph 16.1 mph N/A   Clear
9:15 AM 41.0 °F 33.9 °F 28.4 °F 61% 29.79 in 10.0 mi SSW 12.7 mph 21.9 mph N/A   Clear
9:35 AM 41.0 °F 33.5 °F 28.4 °F 61% 29.78 in 10.0 mi SSW 13.8 mph 21.9 mph N/A   Clear
9:55 AM 42.8 °F 35.8 °F 28.4 °F 57% 29.77 in 10.0 mi SSW 13.8 mph 21.9 mph N/A   Clear
10:15 AM 42.8 °F 36.2 °F 28.4 °F 57% 29.77 in 10.0 mi SSW 12.7 mph 27.6 mph N/A   Clear
10:35 AM 42.8 °F 35.8 °F 30.2 °F 61% 29.76 in 10.0 mi SSW 13.8 mph 21.9 mph N/A   Clear
10:55 AM 44.6 °F 38.4 °F 30.2 °F 57% 29.76 in 10.0 mi SW 12.7 mph 20.7 mph N/A   Clear
11:15 AM 44.6 °F 38.4 °F 30.2 °F 57% 29.76 in 10.0 mi SW 12.7 mph 18.4 mph N/A   Clear
11:35 AM 46.4 °F 40.4 °F 30.2 °F 53% 29.75 in 10.0 mi SSW 13.8 mph 21.9 mph N/A   Clear
11:55 AM 46.4 °F 40.4 °F 30.2 °F 53% 29.73 in 10.0 mi SSW 13.8 mph 26.5 mph N/A   Clear
12:15 PM 46.4 °F 40.1 °F 30.2 °F 53% 29.71 in 10.0 mi SSW 15.0 mph 24.2 mph N/A   Clear
12:35 PM 46.4 °F 39.8 °F 30.2 °F 53% 29.70 in 10.0 mi SSW 16.1 mph 24.2 mph N/A   Clear
12:55 PM 48.2 °F - 30.2 °F 50% 29.69 in 10.0 mi SSW 13.8 mph 24.2 mph N/A   Clear
1:15 PM 48.2 °F - 30.2 °F 50% 29.68 in 10.0 mi SSW 16.1 mph 26.5 mph N/A   Clear
1:35 PM 50.0 °F - 30.2 °F 47% 29.68 in 10.0 mi SSW 17.3 mph 26.5 mph N/A   Clear
1:55 PM 50.0 °F - 32.0 °F 50% 29.68 in 10.0 mi SSW 15.0 mph 24.2 mph N/A   Clear
2:15 PM 50.0 °F - 32.0 °F 50% 29.67 in 10.0 mi SSW 13.8 mph 23.0 mph N/A   Clear
2:35 PM 51.8 °F - 32.0 °F 47% 29.65 in 10.0 mi SSW 17.3 mph 21.9 mph N/A   Clear
2:55 PM 51.8 °F - 32.0 °F 47% 29.65 in 10.0 mi SSW 15.0 mph 28.8 mph N/A   Clear
3:15 PM 51.8 °F - 32.0 °F 47% 29.64 in 10.0 mi SW 18.4 mph 32.2 mph N/A   Clear
3:35 PM 51.8 °F - 32.0 °F 47% 29.64 in 10.0 mi SW 17.3 mph 27.6 mph N/A   Clear
3:55 PM 51.8 °F - 32.0 °F 47% 29.63 in 10.0 mi SW 16.1 mph 21.9 mph N/A   Clear
4:15 PM 51.8 °F - 32.0 °F 47% 29.63 in 10.0 mi SW 16.1 mph 25.3 mph N/A   Clear
4:35 PM 51.8 °F - 32.0 °F 47% 29.63 in 10.0 mi SW 13.8 mph 23.0 mph N/A   Clear
4:55 PM 51.8 °F - 32.0 °F 47% 29.64 in 10.0 mi WSW 16.1 mph 25.3 mph N/A   Clear
5:15 PM 51.8 °F - 32.0 °F 47% 29.64 in 10.0 mi WSW 12.7 mph 21.9 mph N/A   Scattered Clouds
5:35 PM 51.8 °F - 32.0 °F 47% 29.63 in 10.0 mi WSW 17.3 mph 25.3 mph N/A   Clear
5:55 PM 51.8 °F - 32.0 °F 47% 29.64 in 10.0 mi WSW 16.1 mph 23.0 mph N/A   Scattered Clouds
6:15 PM 51.8 °F - 32.0 °F 47% 29.65 in 10.0 mi SW 15.0 mph 25.3 mph N/A   Mostly Cloudy
6:35 PM 50.0 °F - 33.8 °F 54% 29.66 in 10.0 mi WSW 12.7 mph 24.2 mph N/A   Overcast
6:55 PM 50.0 °F - 33.8 °F 54% 29.66 in 10.0 mi SW 11.5 mph 20.7 mph N/A   Overcast
7:15 PM 50.0 °F - 35.6 °F 58% 29.68 in 10.0 mi WSW 10.4 mph 18.4 mph N/A   Overcast
7:35 PM 48.2 °F - 33.8 °F 58% 29.69 in 10.0 mi WSW 12.7 mph 19.6 mph N/A   Mostly Cloudy
7:55 PM 46.4 °F 41.5 °F 33.8 °F 62% 29.70 in 10.0 mi WSW 10.4 mph 18.4 mph N/A   Scattered Clouds
8:15 PM 44.6 °F 39.2 °F 32.0 °F 61% 29.71 in 10.0 mi WSW 10.4 mph - N/A   Clear
8:35 PM 44.6 °F 40.2 °F 32.0 °F 61% 29.73 in 10.0 mi WSW 8.1 mph - N/A   Clear
8:55 PM 44.6 °F 38.8 °F 32.0 °F 61% 29.74 in 10.0 mi West 11.5 mph 25.3 mph N/A   Clear
9:15 PM 42.8 °F 35.4 °F 32.0 °F 66% 29.75 in 10.0 mi West 15.0 mph 21.9 mph N/A   Clear
9:35 PM 42.8 °F 35.4 °F 32.0 °F 66% 29.76 in 10.0 mi West 15.0 mph 21.9 mph N/A   Clear
9:55 PM 42.8 °F 34.8 °F 32.0 °F 66% 29.77 in 10.0 mi West 17.3 mph 25.3 mph N/A   Clear
10:15 PM 41.0 °F 34.3 °F 32.0 °F 70% 29.78 in 10.0 mi West 11.5 mph - N/A   Clear
10:35 PM 41.0 °F 34.3 °F 32.0 °F 70% 29.79 in 10.0 mi West 11.5 mph - N/A   Clear
10:55 PM 39.2 °F 31.2 °F 32.0 °F 75% 29.80 in 10.0 mi West 13.8 mph 19.6 mph N/A   Clear
11:15 PM 39.2 °F 32.0 °F 32.0 °F 75% 29.80 in 10.0 mi WNW 11.5 mph 18.4 mph N/A   Clear
11:35 PM 39.2 °F 30.2 °F 32.0 °F 75% 29.81 in 10.0 mi West 17.3 mph 20.7 mph N/A   Clear
11:55 PM 37.4 °F 28.5 °F 32.0 °F 81% 29.82 in 10.0 mi West 15.0 mph 21.9 mph N/A   Clear